DW6451 Weather Reports


time (UTC)temp
F
wind
direction
speed
knots
gust
knots
rain 1hr
in
rain 24hr
in
rain mn
in
humidity
%
barometer
mb
20260510153056 46 324 1.7 5.2 0.00 0.00 0.00 64 1019.6
20260510151540 46 293 0.9 8.7 0.00 0.00 0.00 68 1019.6
20260510150042 45 317 1.7 7.0 0.00 0.00 0.00 66 1019.4
20260510144543 46 321 0.9 4.3 0.00 0.00 0.00 66 1019.2
20260510143038 45 5 0.9 4.3 0.00 0.00 0.00 67 1019.1
20260510141635 45 323 1.7 7.0 0.00 0.00 0.00 67 1019.0
20260510140034 46 319 2.6 6.1 0.00 0.00 0.00 64 1018.9
20260510134531 46 39 0.9 6.1 0.00 0.00 0.00 65 1018.7
20260510133027 45 325 1.7 9.6 0.00 0.00 0.00 68 1018.6
20260510131528 44 306 0.9 7.0 0.00 0.00 0.00 70 1018.5
20260510130022 43 270 2.6 6.1 0.00 0.00 0.00 70 1018.4
20260510124527 42 309 1.7 7.0 0.00 0.00 0.00 71 1018.2
20260510123016 42 333 0.9 3.5 0.00 0.00 0.00 72 1018.0
20260510121516 41 348 0.9 3.5 0.00 0.00 0.00 75 1017.6
20260510120010 39 355 0.0 2.6 0.00 0.00 0.00 80 1017.5
20260510114509 37 360 0.0 0.0 0.00 0.00 0.00 82 1017.2
20260510113005 36 360 0.0 0.9 0.00 0.00 0.00 82 1017.1
20260510111506 35 360 0.0 0.0 0.00 0.00 0.00 81 1016.9
20260510110002 35 360 0.0 0.0 0.00 0.00 0.00 79 1016.7
20260510104601 35 360 0.0 0.0 0.00 0.00 0.00 78 1016.4
20260510103056 35 360 0.0 0.9 0.00 0.00 0.00 77 1016.2
20260510101555 36 360 0.0 0.0 0.00 0.00 0.00 75 1015.9
20260510100108 36 360 0.0 0.0 0.00 0.00 0.00 74 1015.6
20260510094559 37 360 0.0 0.0 0.00 0.00 0.00 73 1015.5
20260510093044 37 360 0.0 0.9 0.00 0.00 0.00 73 1015.3
20260510091542 38 360 0.0 0.0 0.00 0.00 0.00 72 1015.1
20260510090047 38 360 0.0 0.0 0.00 0.00 0.00 70 1015.0
20260510084551 38 360 0.0 0.0 0.00 0.00 0.00 70 1014.7
20260510083036 38 360 0.0 0.9 0.00 0.00 0.00 70 1014.7
20260510081547 38 360 0.0 0.0 0.00 0.00 0.00 71 1014.6
20260510080038 39 360 0.0 0.0 0.00 0.00 0.00 70 1014.5
20260510074530 39 360 0.0 0.0 0.00 0.00 0.00 69 1014.3
20260510073028 39 360 0.0 0.0 0.00 0.00 0.00 67 1014.3
20260510071529 40 360 0.0 0.0 0.00 0.00 0.00 67 1014.3
20260510070035 40 360 0.0 0.0 0.00 0.00 0.00 66 1014.1
20260510064525 40 360 0.0 0.0 0.00 0.00 0.00 64 1014.0
20260510063022 40 360 0.0 1.7 0.00 0.00 0.00 63 1014.0
20260510061521 40 360 0.0 0.9 0.00 0.00 0.00 61 1013.8
20260510060020 40 360 0.0 0.9 0.00 0.00 0.00 61 1013.9
20260510054518 40 360 0.0 0.9 0.00 0.00 0.00 62 1013.8
20260510053016 40 360 0.0 0.0 0.00 0.00 0.00 62 1013.6
20260510051515 40 360 0.0 0.9 0.00 0.00 0.00 62 1013.7
20260510050013 40 360 0.0 0.0 0.00 0.00 0.00 62 1013.5
20260510044525 40 360 0.0 0.0 0.00 0.00 0.00 61 1013.4
20260510043010 40 360 0.0 0.0 0.00 0.00 0.00 60 1013.5
20260510041507 41 360 0.0 0.0 0.00 0.00 0.00 59 1013.4
20260510040004 41 360 0.0 0.0 0.00 0.00 0.00 59 1013.3
20260510034501 42 360 0.0 0.0 0.00 0.00 0.00 57 1013.2
20260510033137 43 360 0.0 0.0 0.00 0.00 0.00 58 1013.0
20260510031613 44 360 0.0 0.9 0.00 0.00 0.00 57 1012.9
20260510030058 44 360 0.0 0.9 0.00 0.00 0.00 56 1012.8
20260510024551 45 360 0.0 0.9 0.00 0.00 0.00 55 1012.7
20260510023047 46 360 0.0 0.9 0.00 0.00 0.00 54 1012.5
20260510021544 46 360 0.0 0.9 0.00 0.00 0.00 54 1012.3
20260510020046 47 360 0.0 0.9 0.00 0.00 0.00 54 1012.0
20260510014545 48 360 0.0 2.6 0.00 0.00 0.00 53 1011.9
20260510013038 48 5 0.0 2.6 0.00 0.00 0.00 53 1011.6
20260510011541 49 340 0.0 3.5 0.00 0.00 0.00 52 1011.3
20260510010033 49 336 0.9 3.5 0.00 0.00 0.00 50 1011.1
20260510004532 50 337 0.0 5.2 0.00 0.00 0.00 47 1010.8
20260510003031 50 61 0.0 2.6 0.00 0.00 0.00 46 1010.8
20260510001527 49 61 0.0 2.6 0.00 0.00 0.00 46 1010.6
20260510000051 50 61 0.0 1.7 0.00 0.00 0.00 47 1010.5
20260509234539 50 61 0.9 2.6 0.00 0.00 0.00 45 1010.3
20260509233024 50 61 0.0 3.5 0.00 0.00 0.00 46 1010.0
20260509231521 51 59 0.9 3.5 0.00 0.00 0.00 45 1009.9
20260509230019 51 24 0.9 5.2 0.00 0.00 0.00 45 1009.6
20260509224519 51 69 0.0 4.3 0.00 0.00 0.00 45 1009.5
20260509223017 51 55 1.7 4.3 0.00 0.00 0.00 45 1009.5
20260509221515 52 61 0.9 3.5 0.00 0.00 0.00 44 1009.4
20260509220013 52 17 0.9 4.3 0.00 0.00 0.00 43 1009.3
20260509214520 52 347 2.6 7.0 0.00 0.00 0.00 43 1009.3
20260509213012 52 18 1.7 4.3 0.00 0.00 0.00 45 1009.3
20260509211516 52 18 1.7 7.0 0.00 0.00 0.00 42 1009.2
20260509210011 52 316 2.6 6.1 0.00 0.00 0.00 44 1009.1
20260509204509 53 349 1.7 7.0 0.00 0.00 0.00 43 1009.0
20260509203007 54 337 2.6 7.8 0.00 0.00 0.00 44 1008.9
20260509201506 53 59 3.5 7.8 0.00 0.00 0.00 43 1008.7
20260509200006 53 28 2.6 8.7 0.00 0.00 0.00 41 1008.7
20260509194505 52 330 2.6 8.7 0.00 0.00 0.00 43 1008.5
20260509193003 52 328 3.5 6.1 0.00 0.00 0.00 42 1008.3
20260509191501 53 341 3.5 9.6 0.00 0.00 0.00 42 1008.2
20260509184607 52 265 2.6 8.7 0.00 0.00 0.00 46 1007.9
20260509183057 52 249 2.6 8.7 0.00 0.00 0.00 46 1007.6
20260509181619 52 38 1.7 6.1 0.00 0.00 0.00 46 1007.3
20260509180051 53 317 4.3 12.2 0.00 0.00 0.00 42 1006.9
20260509174549 54 311 2.6 8.7 0.00 0.00 0.00 44 1006.7
20260509173058 54 341 3.5 9.6 0.00 0.00 0.00 45 1006.4
20260509171544 54 329 1.7 8.7 0.00 0.00 0.00 46 1006.2
20260509170044 53 324 2.6 9.6 0.00 0.00 0.00 44 1006.1
20260509164541 53 336 2.6 9.6 0.00 0.00 0.00 46 1005.8
20260509163040 52 286 2.6 7.8 0.00 0.00 0.00 50 1005.7
20260509161538 52 351 3.5 10.4 0.00 0.00 0.00 47 1005.5
20260509160040 53 327 3.5 8.7 0.00 0.00 0.00 45 1005.2
20260509154534 52 338 2.6 10.4 0.00 0.00 0.00 45 1005.0